RH
5 4 3 3 3 3 5 6 9 10 10 8 5 4 2 5 16 14 9 37 65 67 65 66 61 50 45 56 63 69 77 71 67 72 70 66 62 63 67 70 72 67 61 58 44 28 25 28 27 27 29 28 27 23 14 10 12 11 8 5 5 6 5 6 5 4 4 5 10 16 16 15 14 13 16 18 20 21 21 17 13 17 24 30 33 34
6 5 4 4 4 3 4 4 6 10 13 12 8 6 4 3 15 12 11 46 68 62 64 63 65 66 49 47 59 61 65 68 68 68 64 60 55 58 68 69 71 72 66 62 50 34 31 32 29 27 28 29 27 25 17 11 12 11 7 5 5 5 5 6 5 4 5 6 10 13 14 13 12 14 16 19 21 21 19 16 14 19 26 30 32 34
6 6 5 5 5 4 4 3 4 7 11 14 11 8 7 3 8 6 7 42 63 57 64 66 69 78 57 38 47 50 53 64 72 72 64 54 49 55 62 61 67 73 72 70 56 42 42 38 30 26 25 27 27 25 20 13 11 11 7 4 5 5 5 5 5 4 5 7 9 11 12 12 12 14 17 19 21 20 17 14 14 20 25 28 29 31
5 6 6 6 6 5 5 4 3 4 6 11 13 10 10 7 6 7 6 25 47 49 56 63 72 83 68 50 52 50 49 56 67 75 69 56 51 51 52 60 71 73 71 72 60 47 47 40 29 25 22 22 23 22 23 18 11 12 8 4 5 5 5 5 4 5 6 7 8 9 10 11 13 15 17 20 19 18 15 13 15 20 22 23 25 26
5 5 6 5 6 6 6 5 4 4 4 7 11 11 13 12 7 9 10 18 36 41 42 53 69 77 71 68 69 60 53 51 55 67 70 67 64 54 52 62 72 73 74 75 63 51 48 41 31 27 22 21 20 18 21 21 14 11 9 5 4 5 5 5 4 4 5 7 7 8 9 10 13 15 17 19 17 16 14 12 15 19 20 21 22 21
5 5 5 5 6 6 5 6 5 4 4 4 7 9 13 16 12 10 11 17 31 39 39 46 60 68 66 66 69 63 55 49 52 66 77 77 71 62 57 59 61 68 79 80 64 50 48 45 36 31 27 21 19 16 15 20 18 12 10 6 3 5 5 4 5 5 6 7 7 7 8 9 12 14 15 16 14 13 12 11 14 17 18 19 19 18
7 6 6 5 5 6 5 6 6 5 5 4 5 7 10 15 16 14 10 12 24 35 40 42 49 62 66 63 68 71 60 52 57 69 80 77 70 66 62 62 65 67 77 81 69 55 51 50 44 41 39 30 23 18 14 15 18 14 10 8 4 3 5 5 5 6 6 6 5 5 7 9 11 13 13 14 14 11 10 10 12 14 16 16 16 17
9 7 7 7 5 5 5 5 6 6 5 5 5 6 8 10 16 21 19 13 14 21 30 38 39 48 64 67 71 77 63 52 58 63 67 64 60 63 62 66 74 73 75 79 74 65 57 53 54 54 52 42 29 23 18 13 16 15 11 9 6 3 4 5 5 5 6 5 4 5 6 8 10 12 13 13 13 11 9 9 11 13 14 14 14 15
10 10 9 8 7 6 5 5 6 6 6 6 6 7 7 7 12 21 26 22 17 15 18 29 28 33 58 68 66 69 54 39 43 44 39 36 41 55 58 60 72 75 76 76 71 68 63 58 59 59 55 49 40 32 24 16 13 14 12 9 7 5 3 3 4 5 5 4 4 4 5 7 9 10 12 13 12 10 8 8 10 12 13 12 13 13
11 12 10 8 8 7 7 6 5 5 5 6 6 7 8 7 7 15 22 23 22 19 14 19 18 21 44 59 62 63 43 22 22 22 17 17 28 44 50 53 65 71 74 77 71 66 68 66 61 55 51 52 50 40 31 25 17 12 12 10 8 6 4 3 4 5 5 4 3 4 5 6 8 9 11 13 11 9 8 8 9 10 11 11 10 11
11 11 10 10 9 7 7 7 6 6 5 6 6 6 7 7 5 9 13 13 15 17 14 15 14 13 24 37 44 42 26 11 11 12 10 12 18 29 40 46 55 62 68 75 73 66 70 72 61 52 50 51 51 44 37 35 27 16 12 12 9 7 5 4 4 5 4 5 4 4 5 5 7 8 11 12 10 9 8 7 8 8 9 9 8 9
9 10 10 9 9 9 8 7 6 7 5 5 6 5 6 8 7 7 7 5 6 10 10 11 12 10 10 14 17 19 16 10 8 9 8 9 13 21 34 41 46 58 67 70 71 67 69 72 63 54 52 54 54 51 47 40 31 21 13 12 12 8 7 5 4 5 4 5 4 4 5 5 6 8 10 11 9 8 8 7 7 8 7 8 8 8
8 8 9 9 10 10 9 9 8 6 7 6 5 5 5 6 8 7 7 6 5 5 6 8 12 12 10 9 7 10 14 14 16 18 12 8 11 17 29 40 48 57 58 59 68 67 63 66 64 58 57 59 59 57 53 42 29 21 12 11 14 11 9 6 4 4 4 4 5 4 4 5 5 7 9 10 8 6 6 6 6 7 7 7 7 7
10 8 8 9 10 10 10 11 12 9 8 7 6 6 5 5 7 6 7 7 5 5 4 5 8 10 10 11 10 8 9 13 16 18 16 10 8 12 22 34 43 48 42 43 58 59 55 60 64 64 62 61 62 60 53 42 29 21 12 8 12 14 11 8 5 4 4 5 5 4 4 5 5 6 8 10 9 6 6 6 6 6 7 7 6 7
11 12 16 16 13 12 7 7 11 13 12 10 8 8 7 6 5 6 7 7 8 10 9 7 7 7 6 8 10 10 11 12 11 17 24 18 7 7 13 16 22 33 35 33 39 42 45 56 64 66 65 60 62 61 54 45 35 26 16 7 8 13 12 9 7 5 4 4 5 5 4 5 5 5 7 9 9 7 5 5 6 6 6 6 6 6
12 20 26 22 17 15 14 12 8 7 10 13 12 9 9 10 7 6 6 7 15 23 23 19 13 11 10 9 9 9 9 12 12 16 21 16 6 4 6 5 6 24 40 35 30 31 37 51 60 61 63 62 62 61 56 51 43 31 20 9 4 9 12 10 8 7 6 4 4 5 4 4 5 5 6 8 9 8 6 4 5 5 5 5 6 5
18 28 26 26 34 34 33 31 20 14 14 14 15 11 10 11 10 10 9 9 18 28 31 27 23 26 28 21 18 18 12 10 13 14 13 11 8 5 4 3 3 17 33 31 25 28 35 50 58 57 61 64 62 61 60 58 52 38 25 13 4 5 9 10 9 7 6 5 4 4 5 4 4 5 5 6 8 8 7 5 4 4 4 5 5 6
17 36 31 27 43 44 37 39 38 32 21 14 18 18 18 21 19 18 17 14 17 27 38 38 33 43 54 48 42 39 31 27 30 30 22 15 11 8 4 3 4 9 15 16 14 18 31 47 55 52 58 67 68 66 65 63 58 46 31 19 7 3 6 8 9 8 6 6 5 4 4 5 4 4 5 5 7 8 8 6 4 4 4 5 6 6
11 42 51 36 37 39 34 32 32 28 16 13 22 27 36 48 45 32 23 19 16 19 28 30 26 34 52 63 63 57 51 51 53 51 43 31 20 13 8 4 3 3 5 7 4 10 30 46 52 54 56 63 69 70 69 65 58 50 39 27 14 4 4 7 7 8 7 6 5 4 4 5 4 4 4 4 6 7 8 7 5 5 5 6 6 6
7 32 57 52 41 38 34 30 38 51 47 37 29 25 35 50 57 52 43 38 33 24 20 19 20 22 29 47 63 63 61 62 62 59 57 51 35 20 12 7 6 4 6 13 13 18 35 42 47 56 56 58 65 69 71 67 59 54 44 34 24 10 3 5 5 6 7 6 6 5 4 4 4 4 4 4 5 6 7 8 7 6 6 6 6 6
9 15 37 52 47 40 39 41 60 84 84 64 42 33 41 53 66 71 62 55 51 47 43 29 20 21 20 30 52 64 66 65 63 63 64 62 53 37 23 15 16 13 8 12 16 19 24 26 33 43 42 47 59 63 67 67 63 58 49 41 35 21 7 3 4 5 6 6 5 5 5 4 4 4 4 3 4 5 6 7 7 7 7 7 7 6
11 7 16 33 38 35 39 44 53 61 58 48 35 32 46 63 77 80 73 71 69 68 72 56 32 27 25 27 43 57 65 68 64 65 69 69 64 53 38 28 25 21 12 8 9 9 9 13 25 31 24 32 54 62 60 64 67 63 57 51 44 32 17 6 3 5 5 6 6 5 5 5 4 4 4 4 3 4 5 6 6 7 7 7 7 7
12 10 8 15 21 22 27 32 34 32 30 32 33 35 50 70 82 83 79 84 84 76 80 74 48 34 37 46 51 52 63 74 70 67 69 69 64 54 47 44 34 21 16 11 5 4 9 13 20 23 18 22 46 61 57 60 68 65 60 57 50 43 31 14 4 4 5 5 5 5 5 5 4 4 4 4 4 4 4 5 5 6 7 7 7 7
13 14 10 9 11 11 14 18 19 20 20 25 28 30 47 72 85 84 78 81 86 79 77 77 58 44 58 77 73 61 62 67 67 71 74 71 69 60 54 60 53 30 19 15 7 5 13 17 19 22 24 24 35 51 55 57 65 65 61 57 54 53 44 25 10 5 4 5 5 5 5 5 4 4 4 4 4 4 4 5 5 5 5 6 7 7
14 16 14 12 12 9 10 12 11 13 13 15 15 12 27 60 80 83 82 81 86 84 78 77 65 51 63 81 79 71 70 64 65 79 84 77 77 70 58 65 64 36 17 14 9 6 11 17 22 26 27 29 39 52 56 56 62 65 63 58 56 57 52 37 21 9 4 4 4 5 5 5 5 4 4 5 4 4 4 4 5 5 5 5 5 6
11 13 13 13 14 12 11 12 10 12 10 9 10 4 12 43 65 74 83 84 84 84 80 82 73 50 52 73 79 76 77 78 78 85 88 82 77 69 57 57 59 47 35 26 10 3 8 15 24 27 19 23 45 57 53 53 62 66 64 60 57 57 55 45 31 18 10 5 3 4 4 5 6 5 5 5 4 5 5 4 5 5 5 5 5 5
6 8 9 10 11 10 11 14 13 13 12 8 9 5 8 30 45 55 75 81 74 68 67 79 81 54 46 68 79 75 74 80 83 82 84 83 77 70 59 48 50 54 54 43 17 3 6 9 17 25 20 23 42 49 43 45 59 67 66 62 58 57 56 51 41 29 18 10 5 4 4 4 5 6 6 5 4 5 4 4 5 5 5 5 5 5
4 5 6 6 8 8 9 13 14 15 15 12 12 7 6 17 22 34 64 74 63 50 49 71 85 64 51 63 73 76 72 70 76 78 79 78 74 72 59 42 42 40 31 30 23 9 4 5 8 18 30 35 35 30 30 36 47 62 69 65 60 58 58 56 51 42 31 21 14 8 4 4 4 5 6 6 5 5 5 5 5 5 5 5 5 5
4 5 5 4 5 5 5 8 12 15 15 13 15 13 9 9 7 18 49 65 59 44 39 64 84 71 60 62 66 78 78 67 71 79 78 75 73 71 57 45 50 43 25 29 36 24 14 10 6 11 26 34 23 16 27 35 38 52 66 65 58 58 59 57 54 51 41 29 23 19 12 7 4 4 4 5 5 5 5 5 5 5 5 5 5 5
5 4 5 5 4 4 5 5 7 11 13 12 14 13 12 12 7 8 23 41 52 44 35 57 80 76 70 63 58 76 86 73 70 80 83 80 75 70 61 55 63 63 47 40 35 26 21 14 5 3 11 16 10 11 28 39 36 42 58 66 64 61 60 57 54 55 51 39 31 26 21 16 11 7 5 4 5 6 5 5 5 5 5 5 5 5
7 6 7 7 5 4 4 4 4 7 11 11 11 11 12 14 13 9 8 15 33 41 40 59 80 83 85 73 55 68 89 83 70 74 86 89 79 70 64 60 65 68 60 44 26 16 14 8 4 3 3 3 2 6 19 31 34 38 49 63 72 73 69 63 60 61 59 50 41 32 27 24 19 14 11 7 5 4 5 5 5 5 6 5 5 5
11 10 8 9 8 5 8 14 12 11 13 12 9 10 13 15 16 16 11 6 10 19 30 58 84 89 93 89 70 67 84 90 77 68 78 90 88 74 64 59 58 59 56 46 31 19 12 5 4 7 8 6 3 3 10 16 22 30 38 49 66 78 78 73 74 76 71 60 48 39 33 29 25 22 17 12 9 6 5 5 5 5 6 6 6 5
23 19 14 14 11 9 19 29 27 24 23 15 8 10 16 19 18 17 17 13 9 7 10 34 71 90 94 97 88 76 77 86 88 81 74 79 88 84 70 61 55 50 48 44 34 26 19 10 4 6 11 12 7 4 5 7 13 22 29 37 47 57 64 66 68 75 79 71 56 45 41 35 30 27 22 16 12 9 7 5 5 5 5 6 6 6
36 30 27 27 22 19 28 37 39 37 27 13 9 12 19 24 23 19 18 16 14 13 6 11 42 74 89 97 96 87 79 77 84 91 81 69 78 87 80 71 65 56 49 43 36 31 26 20 17 16 16 14 13 15 14 12 14 18 24 31 34 37 52 67 66 62 68 72 63 52 46 40 35 32 27 21 14 10 9 7 5 5 5 5 6 6
46 43 40 37 33 32 37 48 55 50 33 21 20 23 23 25 24 19 19 19 18 18 12 10 28 54 74 93 96 84 79 80 80 86 86 73 72 83 82 75 72 69 61 51 44 37 29 28 34 38 34 22 14 20 29 30 26 22 21 24 30 40 59 77 79 71 65 62 56 49 45 41 38 34 31 26 18 11 9 7 6 6 5 5 6 6
52 53 50 44 41 37 39 51 63 60 49 44 45 43 35 29 26 21 18 20 21 20 14 12 29 50 65 88 97 72 60 81 91 86 83 77 73 79 81 72 69 74 74 64 51 39 29 25 32 44 50 41 24 18 26 35 35 32 28 30 45 63 72 75 79 80 71 55 43 40 41 41 39 35 32 30 23 15 8 6 7 7 6 6 6 5
57 60 60 55 49 41 37 44 54 56 54 55 59 60 49 37 33 31 26 23 20 19 16 8 22 50 66 83 99 77 50 65 93 96 84 73 68 75 79 77 77 82 83 73 58 44 32 22 20 28 38 43 41 36 34 34 38 41 42 50 67 75 70 68 75 76 67 54 43 39 41 42 39 35 33 31 27 20 11 6 6 6 6 6 6 6
62 66 70 66 60 55 48 42 43 46 46 48 56 64 62 50 40 32 32 31 22 17 19 12 13 40 66 80 94 92 73 68 83 95 94 81 72 74 78 82 89 93 89 79 67 55 43 31 23 18 18 25 33 37 37 38 43 48 49 56 71 75 67 69 74 65 54 51 47 43 44 45 41 38 36 34 31 25 15 7 5 6 6 6 6 6
58 68 77 73 67 68 62 48 41 39 36 37 44 54 63 65 57 43 35 35 31 22 22 18 10 23 56 78 85 87 89 85 76 78 93 96 85 80 82 83 88 95 96 87 76 65 55 47 38 26 20 25 30 28 30 36 48 61 64 63 67 67 60 61 62 53 46 49 52 51 50 49 45 41 38 37 36 31 22 13 6 5 6 6 6 6
55 65 78 74 66 70 74 65 51 38 32 36 45 53 60 65 68 61 42 31 33 32 28 25 16 11 31 66 85 81 80 85 76 65 79 95 93 91 95 92 86 90 94 90 81 73 61 52 46 36 26 27 30 30 31 34 43 60 68 62 54 46 43 49 52 48 46 50 54 53 50 46 43 41 40 40 40 38 32 22 13 7 5 6 6 6
61 64 75 79 76 79 85 78 61 42 33 36 44 54 59 59 66 70 52 32 32 39 38 34 27 15 13 39 77 89 80 78 76 68 72 85 91 95 96 90 85 86 88 86 81 76 68 55 45 41 34 25 19 21 25 26 29 34 39 38 33 27 35 50 56 51 48 48 48 48 43 38 38 39 40 42 42 41 37 30 22 15 9 6 6 7
76 76 75 79 83 86 89 84 72 55 41 38 46 56 59 57 60 67 63 52 46 45 44 40 34 27 15 17 50 85 91 83 76 74 77 81 87 93 85 75 79 87 89 88 80 73 71 65 52 45 40 29 20 17 18 18 18 16 15 17 17 18 36 57 61 56 52 49 46 46 41 36 35 36 37 39 38 38 38 37 32 27 18 10 6 6
74 76 74 72 76 85 91 86 72 54 40 41 51 60 62 57 54 56 65 74 70 55 46 41 37 35 26 16 25 55 83 92 81 74 79 79 81 89 86 76 84 94 94 94 88 77 74 75 72 61 43 27 22 21 16 13 14 11 9 10 14 21 37 55 62 61 57 51 47 45 40 35 33 33 33 35 36 36 38 38 37 35 30 21 13 7
64 65 68 68 67 75 86 86 74 56 45 46 51 55 57 57 53 52 59 73 81 74 60 47 40 37 31 23 18 24 50 80 85 77 78 78 76 84 91 90 92 97 96 93 89 83 76 72 73 65 42 25 23 22 13 9 10 11 10 12 18 24 32 45 60 64 56 47 44 42 39 33 30 30 32 34 35 35 36 36 36 35 34 30 24 16
69 64 66 67 63 61 72 88 89 73 55 51 54 57 57 54 50 49 50 57 72 85 80 64 52 43 33 25 21 17 23 49 73 79 80 82 82 85 92 95 93 93 94 91 87 84 76 64 59 51 37 27 25 20 12 8 7 8 11 14 19 25 34 48 60 59 48 39 33 32 32 29 25 26 30 32 33 33 33 34 35 35 35 35 31 25
82 75 72 75 71 62 61 71 78 73 62 53 55 61 62 54 46 45 46 46 55 75 86 79 66 57 45 30 23 20 16 24 50 76 86 86 88 90 90 90 92 92 89 88 90 87 75 62 53 43 32 27 24 19 15 11 7 7 11 13 16 23 36 47 50 48 42 35 27 23 24 25 26 27 27 28 32 35 35 36 36 37 38 38 34 29
94 89 84 84 83 77 70 60 54 58 65 62 57 57 56 50 45 45 47 44 43 54 72 80 75 66 56 41 26 21 19 15 28 62 86 88 85 90 90 86 90 94 90 87 93 89 74 62 53 42 31 27 25 21 17 11 7 7 8 9 11 18 28 34 35 37 39 36 31 25 20 19 25 30 31 31 35 38 40 41 40 39 41 41 37 32
95 93 91 91 89 85 82 71 54 48 51 53 56 56 51 46 46 50 53 52 48 46 53 68 75 69 59 47 32 21 19 16 18 43 76 88 80 80 89 91 90 93 92 92 94 88 71 59 51 42 36 32 28 24 20 15 10 8 6 6 8 12 17 21 24 28 33 36 36 29 20 18 22 27 33 38 43 50 56 54 47 42 43 44 41 36
88 92 96 98 96 92 87 82 74 64 50 39 39 45 44 43 45 46 46 51 56 53 48 53 65 67 58 47 36 23 17 17 17 26 55 81 78 67 77 89 88 89 97 99 92 79 64 56 53 47 41 37 31 23 18 14 11 7 5 6 7 8 11 14 17 23 28 33 35 30 23 21 20 22 29 37 46 56 60 58 55 48 44 45 44 37
67 78 89 96 100 100 95 90 87 82 71 55 43 38 36 35 35 36 37 42 52 56 51 46 50 58 56 45 36 27 17 16 18 19 34 62 74 70 73 78 74 79 96 100 88 76 69 64 59 53 45 39 33 24 15 10 8 6 5 5 6 6 8 11 15 19 22 24 26 27 29 30 28 26 26 30 41 50 52 56 62 55 42 42 44 39
50 56 67 80 92 99 100 98 95 92 91 85 74 62 52 44 40 38 37 40 48 54 52 43 40 46 49 43 36 30 21 16 19 20 23 35 52 65 74 76 67 66 82 95 91 83 80 75 67 59 51 42 33 24 15 9 6 4 4 4 4 4 5 8 12 16 19 21 22 23 27 32 33 27 20 19 28 39 50 65 72 57 42 42 45 42
Wind_Speed
26 26 26 24 23 22 22 20 18 20 22 23 23 24 24 21 14 9 11 10 7 10 19 19 23 25 17 11 11 14 14 14 14 14 14 13 12 11 11 12 12 13 13 12 13 13 12 10 9 8 8 9 9 8 8 8 9 8 7 6 8 11 13 14 14 14 13 12 10 8 8 7 8 8 8 6 5 5 5 6 8 10 12 12 11 11
27 26 23 21 22 23 24 24 23 23 23 23 23 23 24 24 19 14 15 13 12 13 18 23 26 31 24 13 13 14 14 13 14 15 16 15 14 11 11 12 13 14 14 13 14 13 13 11 9 8 8 8 9 10 9 9 10 10 8 8 9 12 14 15 15 15 13 12 10 9 8 8 8 8 8 7 6 5 6 7 9 10 12 12 11 10
29 26 22 22 23 23 24 25 26 26 25 24 24 24 24 23 20 18 20 20 15 16 17 20 25 30 27 18 15 14 14 13 14 17 17 16 14 12 12 13 14 15 14 14 14 13 13 12 10 9 9 9 9 10 10 10 10 10 9 9 11 13 15 15 15 14 13 11 10 9 8 8 8 8 8 8 7 6 6 7 9 11 11 11 11 10
29 26 24 25 24 24 25 25 26 27 27 26 25 24 23 21 18 18 19 23 19 16 16 18 21 26 28 25 23 18 14 13 14 17 17 15 15 14 14 13 12 13 14 15 14 13 13 11 10 10 9 9 9 9 10 9 10 11 11 11 12 14 15 15 15 14 12 11 10 9 8 8 8 9 9 8 7 7 7 8 10 11 11 11 11 10
30 27 28 28 27 27 26 26 26 27 28 28 27 26 23 21 19 18 18 23 25 19 17 21 21 24 29 29 28 25 18 15 15 18 17 14 15 15 14 12 10 11 12 15 15 13 12 11 11 10 9 9 9 10 11 11 11 12 13 13 14 16 16 16 15 13 12 10 10 9 9 9 9 9 9 8 8 8 8 9 10 11 11 11 11 11
30 29 29 30 29 29 28 27 27 27 28 29 29 27 24 21 21 22 21 24 29 25 23 29 30 31 33 29 26 26 24 21 17 17 18 16 15 15 14 12 11 11 12 14 16 13 11 11 11 10 8 8 8 9 11 13 13 12 13 14 14 16 17 16 15 13 12 11 11 11 11 11 11 10 10 10 9 10 10 10 10 11 11 11 11 11
32 31 31 31 31 30 30 30 29 28 29 29 28 28 27 24 22 23 23 25 31 31 24 24 28 33 33 27 24 25 27 23 17 17 16 15 14 14 13 12 11 12 12 13 15 13 11 11 12 10 8 8 8 7 9 13 14 13 13 14 15 16 17 16 15 13 13 12 12 13 12 11 11 10 10 10 10 10 11 11 11 12 12 11 11 11
34 34 33 32 31 31 31 31 31 30 30 29 28 28 29 27 25 23 23 26 30 32 28 21 22 30 33 27 22 25 27 23 18 18 15 13 14 15 14 12 11 12 12 13 14 12 11 11 12 11 9 8 8 6 6 10 14 15 15 15 16 16 17 16 15 14 13 13 13 13 12 11 10 10 10 11 11 11 11 12 13 13 13 13 13 12
37 36 37 36 34 33 31 32 32 33 32 30 28 29 29 29 29 27 27 28 30 32 33 29 25 28 32 28 25 29 32 26 21 19 17 18 18 17 16 13 12 13 13 12 12 11 11 12 13 13 10 8 7 5 5 7 12 16 16 17 17 17 17 17 15 14 14 14 14 14 12 10 9 10 10 11 11 11 12 13 13 14 15 14 14 13
39 40 41 40 38 36 34 34 34 33 34 33 32 31 30 30 32 32 32 33 33 34 34 34 31 29 33 33 34 38 39 33 28 27 25 22 21 19 17 15 13 14 14 12 12 12 12 13 15 14 10 7 6 5 4 5 8 14 17 17 18 18 17 17 16 15 14 14 14 14 12 10 9 10 11 12 12 12 12 13 13 14 15 15 14 13
38 40 42 42 41 40 38 37 35 35 36 35 35 35 33 33 35 35 35 36 37 38 36 34 34 33 33 35 38 40 39 35 33 30 26 22 22 19 17 17 16 15 14 13 14 14 13 15 16 13 9 6 5 4 2 2 4 9 15 17 18 19 18 18 17 16 15 14 14 14 13 11 10 10 11 12 12 12 12 13 13 14 14 14 14 13
33 35 39 39 40 41 41 40 39 37 37 37 37 38 37 35 35 34 36 38 39 39 36 33 33 36 38 36 36 35 33 32 31 29 26 22 21 19 16 16 17 16 14 14 16 16 16 16 15 12 9 6 5 3 2 1 2 6 11 16 18 19 19 18 18 17 16 15 14 14 13 12 11 11 12 13 13 13 13 13 13 14 14 14 14 13
32 34 36 36 36 37 38 39 41 41 39 38 39 39 37 37 36 35 36 38 38 36 33 31 32 36 38 36 34 33 30 29 29 28 28 24 21 19 17 15 16 16 15 15 16 17 17 16 14 11 10 7 6 5 4 3 3 5 9 15 18 18 19 19 18 18 17 16 15 14 14 13 12 12 13 13 13 13 13 13 13 14 14 14 14 14
33 32 32 31 31 33 35 35 38 41 41 41 40 38 37 37 37 36 37 39 37 35 32 30 33 37 37 35 33 31 28 29 31 31 29 28 24 20 18 18 18 18 19 18 17 17 15 14 14 12 11 9 8 8 6 4 4 5 8 13 18 19 19 20 19 19 18 18 17 16 15 14 13 13 13 14 14 14 13 13 14 14 15 15 15 14
33 30 27 25 27 33 36 35 34 36 39 42 42 39 38 38 38 37 37 37 35 33 30 29 33 36 36 34 32 30 27 26 30 32 30 29 28 23 22 24 22 20 20 20 19 19 16 14 15 14 13 11 10 9 7 5 4 5 7 11 18 20 20 20 20 20 19 19 18 17 16 15 14 14 14 15 15 15 14 14 14 15 15 15 15 14
32 31 30 29 29 31 32 33 35 36 37 40 41 41 39 37 38 37 37 37 32 29 27 27 31 33 31 30 30 31 30 26 27 31 33 32 30 28 27 28 25 20 18 17 17 17 16 16 16 16 14 12 11 9 7 5 4 5 8 10 16 21 22 21 21 21 21 21 19 18 17 16 16 15 15 15 15 15 15 15 15 15 15 15 15 14
27 28 32 31 28 25 23 26 30 32 34 37 39 41 39 36 36 37 37 36 33 30 27 26 27 25 23 24 24 25 28 26 26 30 34 33 30 31 31 28 24 22 21 19 18 16 15 17 18 18 16 13 11 9 8 7 6 7 9 10 14 20 23 23 23 23 23 22 21 20 18 17 17 16 16 16 16 16 16 17 17 17 16 15 15 14
25 25 30 30 29 28 28 28 26 27 33 36 35 35 33 32 34 35 36 36 35 33 28 25 24 18 11 13 15 15 17 20 21 23 28 31 31 31 32 29 25 24 24 24 24 20 17 18 19 18 16 14 12 10 9 9 10 9 9 10 11 17 22 24 25 25 25 24 22 21 20 19 18 18 18 17 17 16 17 17 18 17 17 16 16 15
26 25 27 30 33 33 34 34 30 32 37 36 33 31 28 27 30 32 35 36 37 36 32 30 30 24 15 7 8 11 13 17 20 20 21 25 28 29 31 32 30 28 26 25 25 22 18 17 18 17 16 15 13 12 11 11 11 10 9 9 10 14 21 26 27 28 28 26 24 23 21 21 20 19 19 19 18 17 17 17 18 18 18 17 16 15
28 28 27 29 31 31 33 34 28 26 29 29 33 36 34 32 31 31 32 32 33 35 35 34 33 31 25 13 1 8 17 22 22 21 21 23 25 27 30 30 31 31 25 20 20 20 19 18 16 15 15 15 14 14 13 13 12 11 9 8 9 12 18 24 26 28 28 28 26 25 23 22 21 20 20 20 19 18 18 18 18 18 18 17 17 16
29 30 30 29 30 30 31 32 28 26 24 25 32 36 35 33 31 29 30 30 29 29 30 31 33 31 27 20 11 8 16 22 18 18 22 23 24 25 27 28 30 32 26 20 20 21 22 22 19 17 16 15 16 16 15 14 13 12 11 9 8 9 12 18 23 25 27 28 27 26 24 23 22 22 21 21 20 20 20 19 19 19 19 18 17 17
31 32 32 32 32 33 33 34 33 34 33 32 34 37 36 34 30 29 28 26 24 21 19 24 29 25 19 21 22 20 16 15 12 15 20 21 23 25 25 28 31 32 29 25 23 23 24 25 23 21 19 17 16 16 15 15 15 14 13 12 10 7 8 13 19 23 25 27 27 26 25 25 24 23 23 22 21 21 21 20 20 20 20 19 18 18
33 35 35 35 36 36 35 35 36 37 37 36 33 33 36 37 32 30 30 25 22 20 15 18 25 21 20 23 24 26 20 11 10 18 22 21 23 25 26 29 32 32 31 29 26 23 23 25 25 23 21 19 17 16 16 17 17 16 16 16 13 9 8 11 16 21 24 26 27 28 27 26 25 24 23 22 21 21 21 22 22 21 21 20 20 19
34 37 38 38 38 38 37 37 37 37 37 37 33 30 34 38 36 36 36 32 27 25 22 21 22 21 24 21 21 26 27 21 17 17 18 17 19 22 25 28 30 31 31 31 28 24 24 25 25 23 21 20 20 19 19 18 18 18 18 17 14 11 10 11 13 18 22 25 27 28 28 27 26 25 24 22 22 21 22 23 23 23 22 22 21 20
32 37 39 39 39 39 39 39 39 39 40 41 39 35 34 38 41 41 39 37 35 32 29 27 25 27 28 22 22 26 25 26 25 23 21 19 16 20 28 31 31 30 30 31 29 25 25 26 25 23 20 19 20 21 21 20 20 20 19 18 16 13 12 11 12 15 19 23 26 28 28 27 25 24 23 22 22 22 23 23 23 23 23 23 22 21
32 35 36 38 40 40 40 41 43 44 45 44 44 39 36 40 44 45 42 41 41 40 36 32 29 32 35 29 28 32 25 21 24 27 27 24 20 24 31 33 32 30 29 28 26 25 26 26 26 26 25 22 21 21 22 22 21 21 20 20 19 16 14 12 12 13 16 20 23 26 26 26 25 23 22 23 23 23 24 24 24 24 23 23 23 22
35 35 35 38 40 39 41 44 45 47 47 47 47 43 40 42 46 46 46 46 47 46 42 36 31 34 39 37 35 39 34 27 25 26 28 26 22 21 25 31 34 33 31 30 26 26 27 26 26 27 27 27 26 24 23 23 23 23 23 22 21 19 16 14 12 13 14 16 19 22 24 25 24 23 23 23 24 24 25 24 24 24 24 24 24 23
39 38 38 40 40 39 42 45 47 49 50 49 50 47 44 44 46 46 48 49 51 51 47 41 35 36 41 43 42 44 43 37 31 29 31 32 31 24 22 27 32 34 36 36 33 31 29 26 27 28 28 29 29 27 26 27 27 27 26 26 25 22 19 16 14 13 14 14 15 17 20 22 23 23 23 24 24 25 25 25 24 24 25 25 24 23
43 43 44 46 45 43 44 46 48 51 52 51 52 51 49 48 48 47 49 50 51 53 51 47 42 40 43 47 47 46 46 45 39 33 31 34 35 30 26 28 31 32 35 37 36 34 31 29 30 31 31 31 30 28 29 30 30 30 30 30 29 26 22 20 18 16 15 14 14 15 17 19 20 22 22 23 23 23 24 24 25 25 25 25 24 23
44 45 48 50 50 49 48 49 50 51 53 55 54 53 53 52 50 49 48 50 52 53 52 49 47 45 45 50 53 48 46 48 44 37 34 34 33 31 31 34 35 33 34 36 37 37 35 35 35 36 36 36 35 33 33 33 33 32 31 31 31 29 27 25 21 19 17 16 16 16 15 16 16 18 20 21 22 22 23 23 24 25 25 25 25 24
41 43 47 50 52 53 52 53 54 52 53 56 56 55 55 54 53 52 50 51 53 53 51 50 50 49 48 52 55 53 49 50 47 42 39 37 35 34 34 36 37 34 33 35 37 38 38 37 36 36 37 39 39 38 38 38 37 35 34 34 34 33 32 29 25 22 21 19 19 17 15 14 14 14 16 19 20 22 22 23 24 24 25 25 26 25
30 35 40 45 50 54 53 52 54 55 54 56 56 56 57 57 56 55 53 53 54 53 51 51 53 54 52 52 55 56 55 53 49 45 44 41 40 39 38 36 36 35 33 33 34 36 38 37 35 33 35 38 39 40 41 41 40 39 39 39 38 38 38 35 30 25 23 22 21 19 17 15 14 13 14 15 18 20 22 23 23 23 24 25 26 26
24 26 31 37 44 49 47 45 48 51 54 57 57 55 57 60 59 57 56 55 55 55 53 53 58 60 57 53 54 56 59 58 52 49 50 47 43 42 42 39 36 36 35 34 34 35 36 38 38 36 35 37 39 40 40 41 41 40 40 40 40 40 40 38 35 30 26 24 22 20 19 17 15 14 13 14 16 18 20 22 22 23 23 25 26 27
25 26 27 31 35 38 37 36 39 44 51 58 58 56 58 60 61 61 59 58 58 58 55 56 62 65 60 57 55 56 59 61 57 54 56 54 48 44 44 43 40 39 38 38 39 39 38 39 40 39 37 37 38 38 38 39 39 39 40 39 38 37 37 37 36 33 28 24 22 20 20 19 17 15 15 15 15 16 18 20 22 23 24 25 26 27
27 28 28 29 31 31 31 32 35 38 44 49 52 54 58 61 64 65 63 61 61 61 57 56 62 67 65 61 59 58 57 58 60 61 60 58 54 49 46 44 43 42 42 42 42 43 42 41 41 41 40 39 39 39 38 38 38 39 41 39 36 33 33 34 34 31 25 21 20 20 19 19 18 17 16 15 15 15 16 19 21 23 24 25 25 26
28 30 31 30 30 30 31 33 34 32 32 36 41 46 51 58 63 66 66 65 64 62 59 57 61 68 71 66 62 64 62 56 57 65 66 62 59 55 51 49 47 46 45 45 45 44 43 44 44 42 41 40 40 41 41 40 38 38 40 38 34 32 32 31 30 29 25 21 19 19 19 19 19 18 17 17 15 15 16 17 20 23 24 25 25 25
27 30 31 32 31 31 32 34 34 30 28 30 35 39 44 52 60 65 67 68 67 65 63 60 61 68 74 70 63 68 71 61 56 63 68 66 64 60 56 54 53 52 50 48 47 46 45 46 46 44 42 41 41 42 43 41 39 38 38 37 35 34 34 33 30 27 26 23 19 19 19 19 19 20 19 18 16 15 16 17 19 22 24 24 24 24
26 28 31 32 32 31 33 35 35 33 30 28 29 33 38 44 53 62 67 68 68 68 67 64 62 67 75 74 67 68 73 67 59 61 64 63 63 62 60 57 56 56 55 52 50 49 48 47 47 46 44 43 42 43 44 43 41 40 39 38 36 35 35 33 29 26 26 23 20 20 20 21 21 21 21 19 17 16 17 17 19 21 23 24 24 24
25 26 29 30 31 32 34 36 35 35 32 29 29 31 34 37 44 54 62 66 67 68 68 67 65 66 73 77 73 70 72 70 64 62 62 60 60 61 61 59 57 57 56 55 54 52 50 48 47 46 45 44 43 42 43 44 42 40 40 38 36 35 33 30 28 27 26 24 21 21 22 23 23 23 22 20 19 18 18 18 19 21 22 24 24 24
25 23 24 25 26 30 33 35 34 34 34 31 29 29 31 35 39 45 56 65 67 66 67 69 68 67 72 77 77 74 74 73 68 65 64 64 63 61 58 56 56 57 57 57 57 55 52 51 49 48 46 45 43 43 43 43 42 40 40 38 36 34 32 29 28 29 28 26 25 24 24 24 25 25 24 22 21 20 19 20 20 21 22 23 24 25
20 17 17 19 21 25 29 32 32 32 33 32 29 28 30 35 39 43 50 59 64 65 67 69 69 69 71 76 79 77 76 76 74 69 66 67 68 66 61 57 55 57 59 59 60 58 56 54 52 50 49 47 46 45 44 44 42 40 39 38 36 34 30 27 28 31 31 29 28 27 25 25 25 26 26 25 24 23 22 21 21 21 22 23 24 25
13 12 12 14 17 21 25 29 31 32 33 32 32 31 31 34 38 41 44 49 57 63 66 69 70 69 70 75 79 80 78 77 77 73 67 66 68 68 66 62 58 59 63 63 61 59 59 57 55 52 51 50 48 47 45 44 42 41 39 37 35 33 30 28 29 32 32 30 30 28 26 25 25 27 28 28 27 26 25 23 23 23 23 24 24 25
14 13 12 13 15 17 21 26 30 32 32 33 34 33 32 33 35 39 42 44 49 56 64 69 70 70 70 73 77 80 79 77 78 75 68 65 67 67 65 63 59 58 63 65 62 59 59 58 57 54 52 51 50 48 46 44 41 40 39 37 34 32 32 31 32 33 33 32 31 29 28 27 27 28 28 29 28 28 27 26 25 24 24 25 25 25
17 16 16 15 15 16 18 22 26 30 32 34 36 35 34 33 33 35 40 43 44 49 57 65 70 71 71 72 74 78 80 77 77 76 70 65 66 67 64 62 59 56 58 61 59 57 57 57 56 55 53 52 50 48 47 45 42 40 39 36 34 35 35 35 35 35 35 35 33 30 29 28 29 30 30 30 30 30 30 29 27 26 26 26 26 26
18 18 17 17 18 17 17 19 23 29 33 36 36 35 35 35 34 34 37 41 44 46 50 57 65 69 70 72 71 73 77 79 77 77 72 66 65 67 65 63 61 57 55 57 57 56 55 55 55 54 53 51 50 49 47 45 43 40 39 37 37 38 38 38 37 37 37 36 34 31 30 29 30 31 31 31 31 31 31 31 30 29 27 27 27 27
19 20 20 19 20 20 19 20 23 28 33 37 38 36 35 35 35 34 36 40 44 46 47 49 56 62 67 71 72 70 73 78 79 78 75 68 65 66 66 64 63 60 57 57 56 55 55 54 53 52 51 51 50 49 47 45 43 40 40 40 40 40 40 40 39 39 38 36 34 31 30 30 31 31 32 33 32 32 33 33 32 30 29 28 27 27
18 20 21 21 21 22 23 23 25 28 32 36 38 37 36 36 36 35 35 38 42 47 48 47 49 55 62 68 72 71 70 74 79 80 77 72 67 65 66 66 65 62 58 57 57 55 54 53 53 52 51 50 50 49 47 45 44 41 41 42 41 41 41 41 40 39 38 36 34 32 31 30 30 31 32 33 34 34 34 35 34 32 30 27 26 25
17 18 19 20 22 23 24 26 27 29 32 34 35 36 37 37 37 36 36 36 39 44 49 48 46 49 56 63 69 71 69 70 76 79 79 75 71 67 66 66 67 64 60 58 58 56 54 53 52 51 49 48 48 48 47 46 45 44 43 43 43 41 42 42 41 40 38 37 36 34 32 31 31 31 33 34 35 35 35 34 34 33 30 27 25 25
17 18 19 20 21 23 24 25 27 29 32 34 34 35 37 37 37 37 36 37 37 40 46 50 47 46 52 58 64 68 68 68 72 78 79 77 74 72 69 67 66 66 61 59 59 57 54 52 51 49 47 45 45 45 46 46 46 45 45 45 44 43 43 43 43 41 40 39 38 36 36 34 33 34 34 35 35 36 35 35 35 34 31 29 27 27
16 18 20 20 21 23 23 23 24 26 30 33 34 35 36 36 36 36 36 37 38 38 42 48 49 47 48 54 60 65 67 67 69 75 79 78 75 75 73 70 68 68 63 58 57 56 54 52 51 49 47 46 44 44 45 46 46 46 46 46 46 45 45 45 44 43 42 41 41 40 40 40 39 37 36 35 36 37 37 36 37 36 33 30 29 29
17 17 18 19 20 22 22 21 21 23 26 30 32 34 35 35 34 34 35 37 39 40 40 45 49 49 47 50 56 61 64 65 67 71 75 77 76 75 74 71 71 71 67 60 55 52 50 51 51 50 49 48 47 45 45 45 46 46 47 48 48 47 47 46 46 45 44 44 44 44 44 44 43 41 39 38 37 40 40 38 37 37 33 30 30 31
Wind_Direction
232 232 232 233 233 232 233 231 224 227 235 237 235 232 225 214 206 200 211 206 176 239 273 287 286 281 275 283 280 258 251 249 241 238 241 243 244 248 248 243 242 240 235 236 239 237 231 228 220 205 200 195 182 173 172 168 165 171 176 174 179 177 171 168 164 161 162 162 162 163 159 147 141 139 138 142 150 159 162 157 150 143 139 135 135 135
232 231 230 230 230 228 228 228 223 224 231 235 236 236 234 224 214 201 189 177 160 197 256 274 276 283 278 270 282 270 256 255 248 243 243 244 246 249 249 244 241 239 234 234 237 238 233 227 222 208 196 194 188 181 179 176 173 174 175 174 178 178 174 171 168 167 167 167 167 166 160 151 147 146 145 148 154 161 163 157 151 145 142 140 140 136
233 232 229 228 228 227 226 226 223 224 226 231 234 233 237 234 228 222 190 166 166 191 222 250 264 279 280 272 274 264 249 249 257 254 245 243 248 251 257 254 242 233 229 231 234 234 232 224 219 211 197 192 192 188 187 186 180 176 176 175 179 179 177 175 172 172 173 171 170 166 160 156 153 151 149 150 154 160 162 158 155 150 146 144 142 138
233 232 230 228 227 226 227 227 224 225 226 229 232 232 236 237 233 232 202 174 174 189 209 234 255 275 281 279 279 272 252 244 262 260 243 244 254 254 261 258 241 233 231 230 229 229 231 227 219 214 203 193 191 189 189 192 188 183 180 178 180 181 180 181 179 178 179 177 171 165 161 161 159 153 149 152 155 157 161 160 159 156 151 148 145 142
231 229 229 227 226 225 225 226 225 225 227 228 232 232 232 233 226 222 209 188 179 181 204 218 228 250 260 264 272 277 270 264 272 261 247 249 255 252 254 253 245 249 248 234 226 226 230 232 225 217 209 197 192 189 188 193 197 191 186 183 183 183 182 184 184 182 181 180 173 165 162 165 164 159 154 154 156 155 158 162 163 160 158 154 150 146
230 228 228 227 226 225 224 226 226 226 226 227 230 232 230 230 226 219 212 198 184 182 201 209 209 227 242 248 261 271 271 272 273 255 247 248 248 247 248 253 254 256 255 233 219 218 220 230 234 224 215 204 198 196 192 195 200 199 194 189 186 186 185 186 185 182 180 178 175 169 171 174 172 167 158 153 154 154 157 163 166 163 161 159 152 147
229 229 229 228 226 225 225 225 226 227 228 227 227 230 228 226 228 227 224 214 197 188 196 208 208 220 235 244 253 261 265 268 256 236 238 244 248 252 250 255 257 252 251 230 217 219 216 224 236 230 219 211 206 209 202 199 202 202 200 195 192 191 190 189 186 182 178 178 177 176 181 184 178 168 155 150 151 153 157 163 166 164 162 159 153 148
229 231 230 230 228 226 226 226 226 228 229 228 226 228 228 225 223 225 228 229 220 208 201 201 203 212 225 239 247 249 253 252 230 216 230 250 261 266 259 256 257 255 249 227 219 224 219 219 231 230 219 210 210 216 216 207 204 204 204 201 198 195 194 193 190 185 180 179 181 182 186 187 181 169 155 151 151 151 158 164 165 164 161 159 155 153
228 229 230 229 229 228 227 227 226 227 229 229 227 228 229 226 223 222 221 224 229 225 216 212 209 205 212 231 250 250 247 238 218 219 244 260 262 262 261 260 258 255 246 230 226 226 220 221 228 227 217 205 204 215 229 222 212 209 207 205 202 198 195 194 194 190 184 183 184 184 187 187 182 173 160 154 153 154 159 164 166 166 163 161 159 158
230 229 229 228 228 228 228 228 227 227 228 228 228 229 229 228 225 223 221 219 221 226 224 224 226 216 206 217 236 244 246 244 240 250 260 261 257 254 258 259 255 254 247 237 234 229 223 226 231 231 224 206 192 203 228 234 225 218 212 210 207 202 198 195 195 194 189 187 187 185 185 184 184 177 166 160 158 159 162 164 169 170 167 165 164 162
237 236 234 231 229 228 228 229 229 228 229 228 228 229 228 230 230 228 227 226 224 226 225 225 231 232 222 219 228 239 248 252 253 258 259 255 252 253 256 255 252 252 249 240 235 230 224 226 233 237 231 209 185 186 211 239 245 231 219 214 213 208 202 196 195 196 193 190 189 189 185 181 184 182 172 167 164 164 167 168 171 173 172 169 167 165
235 238 238 236 234 233 231 230 229 229 230 230 229 230 228 229 232 234 237 237 234 233 233 231 233 239 239 236 237 244 255 261 262 261 258 254 252 250 250 254 252 247 244 243 238 229 223 225 232 236 228 206 181 168 152 187 254 248 226 217 216 214 208 200 196 196 197 193 192 193 187 181 183 185 181 175 171 169 169 170 172 174 173 171 168 165
227 231 236 237 237 237 235 235 234 231 231 231 232 233 232 231 232 234 239 242 242 242 241 239 239 242 246 248 248 249 256 264 267 267 264 260 254 248 245 248 249 242 241 247 241 230 225 226 230 231 225 211 189 176 172 178 228 249 230 215 214 216 214 207 200 197 198 196 195 194 190 183 182 187 189 183 176 171 169 171 173 174 173 170 168 165
224 228 233 236 238 237 235 234 237 237 234 234 234 234 235 235 235 235 239 243 246 246 243 241 243 244 246 250 250 251 254 259 265 268 268 265 259 253 246 240 239 244 248 245 239 238 235 229 228 228 225 217 197 183 178 178 208 238 235 215 208 212 215 212 205 200 199 198 196 196 191 185 183 188 195 192 183 174 170 173 175 175 173 171 169 167
226 224 222 226 232 234 233 231 233 237 238 237 236 235 234 236 237 237 240 244 248 251 248 244 245 247 249 251 253 252 250 251 259 264 266 266 265 262 255 245 243 248 249 242 240 246 246 236 231 226 221 216 200 185 179 181 202 232 244 223 208 206 210 212 209 205 202 200 198 198 193 187 186 190 198 200 192 180 174 177 179 178 177 174 172 170
226 221 218 221 226 229 233 233 230 231 234 237 237 236 234 235 238 238 239 243 245 248 246 241 243 247 250 252 255 256 252 245 249 257 261 264 267 267 261 254 251 245 237 240 246 249 246 241 236 230 224 219 208 194 186 185 199 225 240 232 214 206 205 206 208 207 205 203 200 200 196 190 188 190 198 205 201 190 182 181 182 182 181 178 175 175
222 221 223 220 213 211 219 228 228 226 227 231 235 237 236 235 237 239 239 239 239 240 239 239 243 248 253 255 255 260 262 257 254 257 261 264 264 263 260 256 252 241 233 243 252 250 243 238 237 236 229 222 214 204 194 192 204 224 236 237 222 210 204 203 204 206 207 204 201 201 199 195 192 191 195 203 208 202 193 188 185 184 184 182 181 183
217 218 227 221 208 204 208 216 223 223 222 224 230 234 236 238 238 239 239 237 236 235 232 232 234 234 245 265 272 278 280 279 277 272 266 261 258 258 258 256 253 246 241 245 249 249 243 234 236 239 230 219 215 210 204 204 211 224 236 244 234 217 208 203 202 204 206 204 202 201 201 199 197 195 196 201 208 209 204 198 192 188 188 188 188 191
214 209 222 225 219 217 217 219 224 228 226 221 220 222 223 229 236 238 239 239 239 237 233 231 232 226 213 228 299 315 310 301 299 298 284 267 257 252 252 255 255 252 248 245 245 244 241 235 235 236 229 221 216 213 213 216 219 225 236 248 247 228 214 207 203 201 202 203 202 201 202 202 201 200 199 199 204 210 211 210 204 197 195 196 197 200
217 207 211 221 224 224 228 227 221 223 229 220 213 214 214 216 225 231 233 236 239 241 239 235 235 231 219 206 269 320 303 299 300 301 294 281 270 253 244 248 251 251 247 239 234 234 235 237 233 229 231 230 224 219 217 220 223 226 230 241 251 242 227 217 209 204 201 201 201 201 201 203 203 203 203 201 201 205 211 215 215 210 206 206 208 209
223 215 210 216 223 224 227 223 204 196 213 217 209 208 207 209 216 223 226 230 232 237 242 239 235 234 226 211 197 219 270 286 292 293 290 287 282 266 247 242 245 247 244 230 224 230 236 239 234 229 235 239 233 226 221 219 220 224 226 230 240 249 242 230 218 210 206 204 202 201 200 202 204 205 205 204 202 203 207 213 218 220 218 217 218 219
230 226 218 215 220 222 224 223 215 211 217 223 218 209 203 202 208 215 221 227 227 227 240 241 236 232 213 200 198 203 235 270 271 269 280 283 282 277 262 247 242 245 245 236 230 233 239 238 234 232 237 241 236 229 224 220 219 221 222 221 222 230 242 239 226 214 209 207 205 203 202 202 204 206 206 206 205 205 207 210 215 221 224 225 227 228
235 235 228 221 219 222 225 227 230 231 231 231 225 210 199 199 205 210 212 215 217 213 219 235 234 216 177 175 193 206 220 235 235 251 270 279 279 278 267 251 242 241 242 239 233 229 231 233 234 236 237 233 229 229 227 222 219 221 221 218 215 209 219 235 233 221 212 208 206 206 204 203 204 206 206 207 208 208 208 210 213 217 222 227 230 233
238 239 236 230 225 224 226 229 233 236 238 237 232 218 202 198 205 209 207 206 208 205 203 218 222 191 164 169 187 200 216 225 222 236 257 270 275 271 257 247 243 235 230 232 230 221 217 222 230 235 233 226 224 228 231 225 221 223 224 220 213 206 209 221 231 230 220 211 208 207 207 205 204 206 206 207 209 211 211 212 214 216 219 224 228 232
238 240 240 238 235 230 227 229 231 233 236 236 234 227 212 205 208 209 205 204 205 202 199 207 207 181 172 184 180 178 202 220 214 209 208 212 226 232 230 234 238 232 225 224 223 217 213 216 222 226 225 223 220 222 229 229 224 224 224 219 213 208 208 212 224 234 230 220 212 209 208 207 205 206 207 208 210 212 214 214 215 217 218 221 224 228
239 240 240 240 238 235 231 231 231 230 233 235 234 230 218 212 212 210 207 207 207 202 194 200 205 188 185 192 176 165 173 189 199 206 204 201 207 213 218 224 226 228 230 227 219 216 214 212 215 222 226 225 215 214 225 230 226 222 219 218 216 212 207 206 215 228 233 229 220 214 210 208 205 205 207 210 212 213 215 216 217 219 220 221 222 224
248 245 244 242 240 237 234 234 234 233 233 235 236 233 222 216 215 212 209 209 211 208 196 195 201 187 185 193 181 170 173 175 185 201 203 207 219 214 209 212 212 216 227 228 220 217 216 213 213 221 226 221 212 212 223 228 226 222 218 218 220 215 208 204 209 222 231 231 225 219 215 211 207 205 206 209 212 215 216 217 218 220 222 224 224 224
255 252 250 248 244 240 236 235 235 235 234 234 235 235 229 222 220 217 212 211 214 213 203 196 195 184 184 195 188 178 182 185 187 196 204 215 224 217 205 208 209 210 219 222 218 214 214 213 214 217 218 215 212 215 223 225 224 221 217 219 221 217 209 205 206 216 224 227 226 222 218 215 212 209 208 209 212 215 216 217 219 221 224 227 227 226
257 254 254 252 247 243 240 238 236 235 235 233 232 233 231 228 225 220 216 214 216 216 208 198 192 185 188 196 193 186 190 192 192 199 211 221 222 217 214 213 208 209 216 221 221 218 212 208 210 213 213 215 218 220 221 221 222 220 217 219 221 218 213 207 206 213 219 221 223 222 219 216 214 213 213 213 214 216 218 219 220 222 224 227 229 228
257 255 255 254 250 246 243 241 239 237 236 235 233 231 231 231 229 225 221 219 221 222 215 202 193 190 192 196 195 192 192 193 195 200 210 218 215 208 209 209 205 207 214 219 221 221 217 211 209 210 212 216 219 219 216 217 219 220 220 221 222 221 218 214 210 212 217 220 220 221 220 217 215 215 216 216 216 217 219 220 221 222 224 227 229 229
259 256 254 253 251 248 245 244 243 239 236 235 234 233 231 231 231 229 225 222 223 225 218 205 197 196 196 195 196 196 193 193 198 200 202 208 207 200 202 207 206 208 215 220 222 223 223 221 216 215 216 218 219 218 215 215 216 216 217 219 220 221 221 218 213 211 215 217 218 218 218 216 214 215 217 219 219 219 219 220 221 221 224 227 229 231
268 262 257 254 250 247 246 246 244 241 238 234 232 232 231 231 229 229 228 226 224 226 220 208 202 204 204 198 196 198 197 196 201 202 198 200 202 198 199 203 207 212 217 222 225 226 228 227 223 221 222 222 223 222 219 220 220 219 217 217 217 217 217 215 212 211 212 213 213 214 214 214 212 213 216 220 222 222 221 221 221 221 222 226 229 232
280 276 268 259 251 246 246 246 244 243 240 235 231 229 229 231 229 226 227 227 226 226 221 212 210 211 209 202 198 199 199 198 201 202 199 201 202 198 198 201 209 219 224 227 231 233 233 231 226 223 222 223 225 226 225 225 224 224 225 224 223 223 222 216 209 205 206 208 209 210 210 211 210 210 214 219 222 224 223 222 222 221 220 223 227 231
274 276 274 267 256 248 246 247 243 241 240 237 232 228 226 228 228 226 225 225 225 226 221 215 214 214 212 207 202 200 200 199 201 201 200 202 205 202 201 203 207 216 223 228 232 232 232 229 226 223 220 219 221 224 227 229 227 227 230 230 232 235 234 228 218 206 200 201 205 207 208 208 208 209 213 218 222 224 223 221 221 221 220 220 224 228
268 267 267 266 259 249 244 244 241 239 239 237 235 232 226 225 227 227 225 224 224 225 222 218 214 212 213 213 207 203 202 202 204 205 202 202 204 205 206 208 209 213 218 223 224 226 226 224 222 222 221 219 219 221 223 224 226 229 231 233 236 234 230 229 223 212 206 206 207 209 211 210 209 211 214 217 221 223 222 219 218 219 220 220 222 225
266 262 260 261 259 250 244 243 241 239 237 233 233 233 228 224 225 226 225 223 223 223 223 221 215 211 213 216 211 206 208 207 206 207 207 204 204 205 208 213 214 214 216 218 218 219 221 219 219 221 222 220 221 223 223 222 222 226 229 230 228 223 221 223 219 214 221 231 224 216 215 214 213 215 217 219 220 222 223 220 217 217 219 220 220 223
270 264 258 256 256 251 246 245 244 241 234 229 229 231 228 225 224 224 224 223 222 222 222 222 218 213 213 217 214 209 211 213 208 204 206 208 208 207 208 211 212 211 214 217 215 215 217 218 217 218 219 220 221 223 225 225 223 224 225 221 216 218 222 221 217 219 231 239 236 227 221 219 219 219 219 221 221 220 222 223 220 218 218 219 220 222
277 270 260 254 253 252 248 246 245 243 238 234 236 236 232 227 225 224 225 224 222 222 222 221 219 215 214 217 217 212 212 216 211 202 201 205 206 205 205 207 208 209 213 215 215 215 217 219 220 219 218 220 221 221 223 224 223 224 223 216 212 217 219 217 219 227 233 232 232 232 226 220 221 222 221 222 222 220 222 224 223 222 220 219 220 221
284 275 263 254 251 250 248 245 245 244 241 239 241 240 235 231 228 226 226 225 222 221 222 222 220 217 215 216 218 216 216 218 215 207 202 202 202 201 204 208 208 209 212 213 213 214 216 218 222 223 222 221 221 221 222 223 222 223 222 216 214 218 222 224 227 229 228 225 224 226 225 221 220 221 222 223 223 222 223 224 225 225 223 221 221 221
287 276 264 256 252 250 249 247 246 244 239 236 238 241 238 234 230 228 227 225 222 221 222 223 222 220 217 217 217 217 217 219 218 213 208 205 203 204 209 212 211 209 210 211 211 213 216 218 221 224 224 224 223 220 222 224 224 222 221 221 222 223 224 229 231 226 222 221 218 217 220 220 218 219 221 222 223 224 224 225 226 228 226 224 224 223
283 270 261 259 256 252 250 249 248 244 239 235 236 240 241 236 232 229 227 224 222 221 221 222 222 222 219 219 219 218 217 217 218 217 214 211 209 209 214 218 216 212 211 212 212 212 215 218 220 223 224 225 225 223 222 224 226 224 223 223 226 225 222 223 228 226 222 220 219 217 218 219 218 217 218 219 221 224 225 226 228 230 229 228 227 226
275 258 260 264 262 257 254 251 248 244 240 236 236 239 241 239 236 232 228 226 224 223 221 221 221 222 221 219 220 220 218 216 217 218 218 216 212 211 214 219 220 216 213 213 214 214 215 218 220 221 223 225 226 226 224 224 225 226 225 225 225 225 222 220 223 227 224 221 220 220 220 222 222 219 217 219 221 223 224 225 227 230 232 232 231 229
278 262 261 267 268 263 256 251 246 241 238 237 240 243 245 244 240 236 232 230 227 224 223 222 222 222 222 220 220 222 221 218 216 216 218 218 213 210 212 216 217 213 210 211 214 216 217 219 220 221 223 225 226 227 225 223 223 224 225 225 223 223 223 221 222 227 228 225 223 223 224 226 226 223 221 220 221 223 224 224 225 228 232 234 234 233
288 278 273 269 268 264 256 251 246 241 237 238 241 244 246 246 244 239 236 234 230 225 225 224 223 223 223 222 221 222 223 221 217 215 216 218 214 210 211 214 214 210 206 209 213 215 216 218 219 221 223 224 224 226 225 222 221 221 222 222 221 221 223 223 223 227 229 229 226 225 226 227 227 227 225 222 222 224 225 224 224 226 230 233 235 236
292 286 282 276 271 266 257 250 245 240 237 238 240 242 245 247 247 244 239 236 232 229 227 226 225 225 225 223 222 222 223 223 220 215 213 215 214 209 210 214 216 212 208 209 212 213 215 217 219 220 221 223 224 224 224 223 219 217 217 218 218 220 221 222 224 227 230 231 229 227 227 228 229 229 227 225 224 225 226 226 225 225 228 232 235 236
294 289 285 280 275 270 262 252 245 240 238 239 240 243 245 247 248 248 243 238 234 232 230 229 227 226 225 224 224 224 223 222 221 217 214 213 213 210 209 214 217 216 214 212 212 212 213 215 218 219 220 222 224 224 224 223 219 215 215 216 216 218 220 221 223 225 228 230 231 228 226 226 228 229 229 228 226 226 228 227 225 224 226 229 233 235
295 291 287 282 277 272 267 259 251 244 241 242 244 245 248 248 248 249 248 241 236 234 233 231 229 227 226 225 224 224 224 222 221 220 217 215 214 212 210 212 216 217 216 215 214 212 212 214 217 218 219 221 224 225 224 223 221 217 216 217 217 217 219 221 223 224 226 229 232 231 228 225 225 227 230 230 228 228 229 229 228 226 226 229 233 235
298 292 288 284 279 274 269 264 259 253 248 247 248 248 248 247 246 248 248 244 240 236 234 232 230 228 227 225 223 224 225 224 222 221 219 217 216 215 213 212 215 217 216 214 214 212 211 213 215 217 218 221 224 226 226 225 223 220 218 218 219 219 220 222 223 224 226 229 233 234 232 228 226 227 229 232 233 232 231 232 233 232 229 230 233 234
305 298 291 288 282 277 273 267 262 259 255 253 251 250 249 247 246 247 246 242 241 239 236 233 231 229 227 225 223 223 224 225 223 221 220 219 218 217 216 215 216 218 217 213 212 210 210 212 214 216 218 221 225 227 228 227 225 222 220 220 221 220 221 223 225 225 226 229 232 234 235 233 231 229 230 232 235 235 233 233 235 235 232 231 232 232
312 302 294 289 283 279 277 271 264 260 257 256 255 252 251 249 247 245 243 240 238 239 238 234 231 229 227 224 222 222 223 225 224 222 220 219 217 217 218 217 218 221 220 213 208 209 211 212 215 219 221 223 226 229 229 228 226 224 223 223 223 223 223 224 226 227 227 228 229 231 234 236 236 235 233 233 234 234 232 231 234 236 234 231 231 231
319 312 303 297 290 283 280 276 271 265 260 256 256 254 252 250 247 244 241 238 235 235 236 234 231 228 226 224 222 222 222 224 224 222 221 220 218 217 218 217 217 221 221 214 207 209 215 217 220 224 226 226 225 226 229 228 226 225 225 225 225 225 225 226 227 229 230 231 232 232 233 236 239 238 234 230 229 231 231 230 232 236 236 231 230 230